CAPE
2835 3035 2815 2694 2894 2654 2856 2982 2957 3133 3185 2947 2516 2443 2827 3199 3456 3483 3699 3794 3652 3555 3492 3682 3401 3369 3291 3551 3849 3536 3542 3540 3951 3882 3678 3600 3672 3100 2750 2800 2687 2556
2400 2706 2635 2610 2811 3117 3260 3132 3211 3191 3438 3243 3002 2936 2799 3025 3464 3723 3602 3607 3451 3279 3586 3358 3458 3436 3556 3583 3806 3858 4295 4234 3565 3562 3775 4040 3564 2940 2665 2644 2406 2496
2130 2299 2480 2569 2398 2610 2357 2808 3207 3104 2979 2645 2821 3173 3052 2588 3309 3582 3815 3636 3282 3143 3462 3531 3668 3478 3618 3962 4210 3715 3696 5016 4068 3747 4151 4117 3634 3228 3107 2670 2740 3043
2192 2121 2075 2042 2154 2326 2441 2793 3190 3121 3018 3080 2985 2712 2690 2573 2947 3186 3816 3413 3602 3556 3329 3408 3351 3397 3497 3750 4198 3749 4249 4117 3967 4816 4796 4531 4200 3732 3477 3486 2993 2900
1951 2018 1856 2138 2108 2340 2659 2655 2517 2612 2866 2905 2705 2839 2638 3046 2637 3109 3275 3449 3630 3584 3483 3528 3230 3528 3718 3915 3876 3758 3970 3925 4060 4606 4651 4844 5001 4461 3597 3454 3698 3233
2026 2057 1978 1902 2276 2627 2399 2486 2518 2601 2744 2717 2792 2719 2638 2924 2754 2812 2889 2907 2913 2819 2898 2988 3197 3268 3455 4056 4016 3985 3648 3124 3179 4630 4432 4585 3929 3688 3715 3956 4342 3905
1794 1974 1807 1638 1860 2126 2197 2364 2590 2742 2464 2468 2739 2730 2686 2699 2566 2829 2882 2716 2613 2739 2621 3034 3378 3403 3373 3972 4106 4125 3724 3354 3925 4496 4072 3990 4296 4392 3636 3539 3579 3550
1641 1608 1572 1403 1429 1587 1722 2149 2578 2820 2955 2879 2716 2734 2766 2590 2792 2728 2695 2913 2695 2784 2885 3132 3445 3365 3208 3264 3638 3846 4032 3566 3622 3642 3831 3709 3847 3850 3618 3200 3288 3384
1380 1397 1465 1428 1220 1142 1323 1359 2091 2496 2791 2767 2233 2292 2571 2685 2652 2542 2955 3182 3030 3174 3538 3490 3688 3545 3280 3575 3788 3872 3954 3397 2871 3237 3386 3362 3327 3383 3493 3466 3304 3310
1434 1282 1062 1126 980 920 930 958 913 1522 1968 2212 1872 1803 2239 2361 2570 2718 3121 3414 3351 3460 3701 3700 3828 3504 3327 3508 3770 3767 3550 3290 3032 2810 2546 2552 2694 2701 2368 2539 2717 2958
1265 1097 934 898 716 584 692 693 685 604 1364 1471 1342 1441 1658 2220 2357 2472 3050 3532 3116 3383 3666 3688 3668 3623 3508 3245 3281 3258 3288 2838 2926 2782 2738 2550 2384 2450 2477 2347 2140 2012
1871 1542 1273 1124 864 579 536 616 527 546 781 1063 1083 1073 1434 1636 2191 2206 2157 2627 2716 2994 3250 3655 3555 3657 3740 3583 2995 2894 2756 2386 2134 2385 2215 2134 1966 1738 1827 2037 1792 2060
2576 1823 1599 1294 1408 1089 693 667 724 632 521 575 660 719 946 1093 1087 1531 1748 2001 2210 2181 2080 2676 2967 2873 3190 3154 2914 2580 2486 2547 2154 1761 1771 1712 1736 1433 1153 1105 1180 1252
2906 2602 2452 2172 1948 2004 1785 1283 1079 849 979 923 879 909 835 671 712 811 1258 1587 1700 1684 1770 1860 2335 2519 2783 3028 2775 2455 2283 2284 2270 1938 1482 1363 1222 1349 1240 913 850 918
2800 2729 2592 2787 2798 2968 2858 2154 1841 1762 1858 1891 1862 1286 747 576 664 596 721 1034 1212 1537 1620 1544 1446 1902 2008 2384 2409 2471 2138 1914 1846 1883 1622 1500 1446 1288 1141 1195 1147 1009
2425 2321 2243 2595 2547 2569 2591 2691 2473 2400 2135 2278 1956 1971 1454 1369 1076 1042 942 958 1300 1630 1873 1668 1361 1273 1892 2454 2376 2178 2207 1809 1732 1833 2016 1812 1780 1898 1488 1255 1057 921
2170 1915 2244 2455 2465 2579 2736 2549 2543 2330 2352 2472 2365 2367 2402 2396 2566 1819 1307 761 936 1157 1347 1468 1317 800 2780 1870 1676 1124 1913 2210 2430 2647 2852 2831 2475 2300 2143 1571 1310 1146
1891 1820 1778 1991 2245 2498 2366 2392 2463 2512 2484 2661 2467 2177 2492 2054 2153 2232 2133 1767 1196 1214 1028 855 621 986 1387 1383 1188 886 1166 1901 1818 1814 1756 1875 2064 1876 1853 1727 1333 1160
1513 1528 1385 1512 1746 1875 2040 2113 2202 2142 2279 2388 2592 2684 2371 2258 2152 1972 2130 2371 1990 1853 1583 1138 1074 956 884 926 807 667 564 751 1412 1368 1334 1253 1264 1718 1795 1917 2149 1902
1466 1573 1550 1544 1375 1275 1112 1369 1659 1810 2029 2135 2259 2474 2408 2465 2358 2281 2396 2506 2464 2393 2299 2189 1667 1200 1166 952 757 638 535 510 1061 1345 1258 1200 1250 1448 1493 1541 2082 2559
1255 1370 1573 1509 1390 1215 1322 1422 1415 1442 1645 1817 2136 2303 2236 1878 2185 2125 2208 2264 2350 2374 2273 1905 1332 1262 1171 989 836 889 942 826 1019 1474 1280 1241 1435 1737 2332 2128 2101 2324
682 693 1006 823 759 853 794 849 1018 1297 1188 1200 1609 1595 1525 1857 1851 1772 1894 2064 2242 2267 2078 1545 1376 1189 1072 1008 849 774 784 956 1492 2029 2262 1916 1891 2111 2375 2809 2757 2756
596 583 649 672 650 648 682 702 759 788 856 1007 984 1076 1449 1441 1360 1442 1869 1956 2150 2188 1954 1378 1298 1213 1160 1057 928 1034 1024 1578 2023 2294 2244 1992 2081 2369 2602 2595 2588 2784
360 397 474 526 561 620 676 682 742 758 814 827 778 847 936 902 720 811 970 1287 1462 1222 1086 1058 1025 996 915 850 796 805 1185 2212 2609 2421 2013 1460 2161 2218 2333 2368 2273 1945
304 300 349 364 330 427 496 522 589 587 471 534 633 649 687 692 628 622 600 690 957 1039 990 939 914 852 816 797 799 778 798 1306 2139 2246 2102 1918 2393 2003 2244 2322 2564 1896
265 238 221 238 249 315 326 337 315 337 365 384 384 365 397 395 416 477 497 506 571 627 728 716 686 700 763 801 821 863 896 904 1130 1493 1751 1598 1250 1698 1863 2050 1852 1637
Wind_Speed
11 11 11 11 11 11 10 9 9 9 9 8 8 7 7 6 6 5 4 3 2 1 1 0 1 1 2 2 2 2 2 2 1 1 2 2 2 2 2 3 3 3
11 12 13 12 12 12 11 10 11 10 10 10 10 9 8 6 5 4 3 3 1 1 2 2 2 2 2 3 3 2 2 2 2 2 2 1 1 1 0 1 2 5
10 11 11 11 11 10 10 11 12 11 10 9 9 9 7 6 5 4 4 3 2 3 3 2 3 3 3 3 3 3 4 4 3 3 4 2 1 2 2 2 3 5
10 11 11 11 12 12 11 11 11 11 11 10 9 9 8 8 7 5 5 4 4 4 4 4 4 4 5 5 5 4 6 4 4 5 4 4 4 3 4 4 5 5
9 10 11 11 12 14 13 12 10 11 10 11 10 10 9 8 6 6 6 6 4 5 6 5 6 5 6 6 6 5 7 6 7 6 5 5 5 6 4 6 7 6
10 10 10 11 12 13 12 12 11 11 10 11 10 10 9 8 6 7 7 6 6 5 7 7 7 7 7 8 7 6 6 5 9 8 6 5 4 5 6 7 6 6
11 10 8 9 10 11 12 13 13 12 11 11 12 10 10 8 7 8 8 7 6 8 7 9 8 8 8 8 7 7 6 5 6 6 6 5 5 5 5 5 6 6
12 12 11 10 10 11 11 12 12 12 12 12 11 11 9 8 9 9 9 9 8 8 8 8 9 8 6 7 7 6 6 6 6 5 5 5 5 5 5 5 6 5
15 14 14 11 10 12 11 11 12 12 12 11 9 11 10 8 10 10 12 11 9 10 10 8 8 7 7 7 7 6 6 5 6 7 6 5 5 5 5 6 5 5
15 16 15 14 13 14 12 11 12 12 12 11 10 11 11 11 10 11 13 11 10 11 10 9 9 8 7 7 6 6 7 7 6 7 6 6 6 6 6 6 6 6
15 15 16 16 16 16 13 12 12 12 14 12 11 11 12 13 13 12 12 12 10 10 10 9 9 8 8 7 8 8 7 7 7 7 7 7 6 7 7 6 5 5
16 16 17 17 16 16 15 15 14 14 14 14 13 13 14 13 14 13 13 12 10 10 10 10 10 9 9 8 8 8 8 7 7 7 6 7 7 7 7 7 7 6
17 17 18 18 18 17 18 17 16 15 14 14 15 14 14 13 14 14 15 13 13 11 10 12 11 10 11 10 9 9 9 8 7 6 6 6 7 7 8 8 8 7
19 20 20 20 20 21 19 18 18 17 17 17 17 16 15 14 13 14 15 14 14 13 12 13 13 12 13 12 11 10 10 10 8 6 5 5 6 7 7 8 9 8
23 22 22 21 21 21 20 20 20 20 20 20 19 18 17 16 15 15 16 16 17 16 15 14 14 15 15 14 14 12 10 10 9 8 7 6 5 5 7 9 9 9
23 22 22 21 21 20 20 21 21 21 20 20 20 20 19 19 19 19 18 18 18 19 18 16 16 15 19 20 16 14 14 12 12 11 9 8 7 6 5 7 7 8
22 22 22 21 22 22 22 22 21 21 21 21 21 22 22 23 22 20 19 19 19 20 20 20 17 20 29 26 22 16 14 13 13 12 12 10 9 8 6 5 5 6
25 24 23 21 22 23 23 23 23 22 22 21 21 21 22 21 22 22 22 21 21 21 20 21 26 32 32 30 22 19 15 14 13 12 12 12 11 10 9 8 6 6
27 26 26 25 24 25 25 25 24 23 21 21 22 23 23 22 23 23 24 24 22 23 22 22 29 34 34 31 26 21 17 14 15 13 13 12 12 13 12 11 10 9
27 26 24 25 25 26 26 26 25 24 24 24 25 26 26 26 26 26 26 26 26 25 25 23 31 34 34 31 26 22 20 19 15 14 14 14 14 14 14 13 14 12
36 35 32 29 28 27 25 23 23 24 24 25 25 25 27 28 29 29 29 28 28 28 26 27 34 34 35 31 27 24 21 19 17 15 16 17 17 17 17 15 16 16
38 37 33 31 30 28 26 25 24 25 25 26 26 26 27 29 32 33 32 31 31 31 28 37 36 39 37 34 30 26 25 22 19 17 17 17 19 19 20 20 20 19
37 35 32 31 29 28 26 26 25 25 25 24 25 26 29 30 33 36 38 37 37 37 36 39 41 41 39 37 36 33 26 24 21 21 20 19 20 22 23 24 24 24
36 33 31 29 27 26 25 25 25 27 29 28 28 27 28 30 31 34 39 43 46 46 41 41 43 43 42 41 41 39 32 28 28 26 25 22 23 24 25 27 30 37
34 33 32 31 29 29 30 30 30 28 28 28 28 28 28 27 25 25 30 36 41 46 48 43 42 44 45 44 43 42 37 31 32 30 28 27 29 29 30 32 33 40
34 34 34 32 31 31 32 31 30 29 28 28 28 28 29 27 25 21 21 24 30 37 41 43 43 43 45 45 45 43 40 33 32 31 31 32 31 30 33 30 39 36
Wind_Direction
201 200 200 198 195 193 198 203 204 207 202 207 211 216 216 223 212 211 208 214 227 244 279 57 7 18 9 9 13 28 49 42 110 330 63 101 109 103 148 203 188 196
204 202 201 201 202 198 198 200 210 204 208 201 205 217 215 223 226 214 209 206 233 266 279 315 342 353 3 341 342 350 332 330 355 326 328 19 83 116 336 253 218 222
206 208 203 196 201 205 200 207 209 207 208 208 212 209 219 227 235 234 227 210 229 271 287 290 304 319 324 308 301 317 311 294 298 307 292 289 254 241 230 215 259 270
207 203 204 200 196 207 206 210 213 206 211 214 208 213 205 225 236 256 252 246 245 253 278 290 290 299 303 293 288 284 282 280 276 258 270 276 283 264 250 259 253 249
216 210 203 204 205 207 208 210 209 220 211 219 217 217 220 223 233 254 261 269 260 276 280 284 289 288 283 283 286 276 275 280 291 292 275 268 269 280 274 258 254 255
223 217 212 209 214 215 211 216 211 219 219 230 221 229 229 240 238 247 260 268 280 276 275 283 284 282 284 280 277 270 268 268 274 283 276 267 255 260 264 263 259 254
228 231 226 223 222 225 215 220 220 218 225 226 239 233 240 249 252 255 255 255 247 258 265 264 262 266 267 269 272 275 271 266 260 275 273 270 268 265 264 272 270 262
221 228 230 227 227 231 226 230 228 230 228 231 243 252 249 258 266 272 271 267 267 268 260 264 270 268 271 276 271 273 273 277 282 280 276 269 260 260 271 271 280 280
219 224 227 230 232 229 231 233 242 239 239 241 241 256 265 257 271 272 275 278 273 274 276 275 277 274 269 260 257 256 257 249 254 269 271 269 276 277 275 280 292 292
227 223 227 230 231 230 229 226 233 244 248 246 247 246 261 266 261 268 277 279 281 283 284 278 279 274 265 264 260 253 249 257 262 263 263 271 273 270 271 279 284 287
235 236 235 234 232 234 239 236 232 235 244 245 247 251 255 261 267 265 269 275 278 284 285 283 277 272 264 253 251 250 254 260 268 277 285 285 281 276 268 263 265 272
235 235 239 241 239 239 241 241 239 238 240 248 247 250 255 257 263 265 267 269 265 267 270 273 271 266 260 249 247 255 261 266 278 289 294 296 295 292 286 275 264 264
239 237 236 238 242 237 237 242 242 243 244 243 252 254 256 259 263 263 261 262 266 266 268 272 271 269 264 261 254 252 259 265 272 284 294 296 301 298 291 285 279 271
240 238 236 235 236 241 240 240 240 242 243 241 241 249 251 254 254 261 263 262 262 264 266 269 275 276 277 273 267 267 271 278 279 278 279 288 291 293 289 284 279 272
242 241 240 240 239 241 242 244 244 243 243 245 246 243 245 248 251 251 251 254 258 259 260 264 273 281 283 288 290 287 275 276 278 279 282 281 280 286 294 294 291 284
247 244 243 242 242 242 242 244 246 247 249 250 249 249 248 246 245 248 251 255 258 263 264 264 265 270 277 273 267 272 284 279 278 277 270 262 260 261 272 292 300 296
245 246 246 246 245 242 241 241 243 245 246 247 249 250 248 252 250 252 255 256 260 263 267 268 267 256 272 282 276 265 266 278 278 280 283 283 285 284 274 269 274 287
244 246 246 246 246 246 245 244 242 241 243 245 247 251 253 252 255 254 252 253 257 261 264 265 265 252 253 257 265 270 271 271 279 282 285 287 288 286 282 279 275 276
249 250 249 246 244 244 242 245 246 245 244 247 247 247 249 253 253 254 256 255 253 254 254 258 262 252 251 248 249 256 265 268 271 277 280 284 283 285 283 277 271 264
251 252 253 251 252 253 253 251 249 248 246 247 248 252 252 252 254 254 254 255 254 254 254 253 255 246 248 249 244 248 256 267 268 271 279 280 279 280 280 283 282 275
246 249 250 250 250 255 258 260 257 252 251 251 254 256 258 257 255 254 254 256 257 256 256 257 252 246 247 246 248 247 248 257 264 262 268 274 278 280 279 275 276 277
241 243 245 247 247 247 252 253 251 251 253 253 253 255 257 257 256 253 254 254 255 256 256 256 254 248 246 246 246 247 251 261 265 266 265 266 270 273 274 274 272 270
242 243 241 240 243 248 251 253 253 254 253 253 258 259 257 256 257 253 251 253 255 256 259 259 255 249 247 246 247 246 258 262 263 262 267 270 271 273 275 274 274 268
237 237 237 239 244 249 251 251 251 249 250 251 252 256 257 255 252 252 252 250 251 253 256 258 255 251 246 244 243 243 243 256 258 258 256 258 262 264 268 269 266 267
236 237 239 241 244 248 251 256 258 255 254 255 256 257 259 260 260 253 252 252 252 253 252 254 254 252 247 243 242 242 244 255 258 257 259 258 258 261 260 261 265 263
239 239 240 242 244 246 247 250 253 256 260 261 262 263 262 260 260 257 256 254 252 250 249 251 253 252 250 246 244 241 241 248 258 257 256 254 252 252 254 259 259 264